Terminal Aerodrome Forecast
Issued by NWS Houston/Galveston, TX

Home | Current Version | Previous Version | Text Only | Print | Product List | Glossary On
Versions: 1 2 3 4 5 6 7 8 9 10 11 12 13 14 15 16 17 18 19 20 21 22 23 24 25 26 27 28 29 30 31 32 33 34 35 36 37 38 39 40 41 42 43 44 45
000
FTUS44 KHGX 011134
TAFGLS
TAF
KGLS 011134Z 0112/0212 16005KT P6SM BKN050 OVC060
     FM011900 19012KT P6SM VCSH BKN025
     FM020100 34020G30KT P6SM VCSH BKN015 BKN050
     FM020400 35015G25KT P6SM BKN250=

USA.gov is the U.S. government's official web portal to all federal, state and local government web resources and services.